Weather History for Colima, Mexico

Change the Weather History Date:

Tuesday, July 2, 2013

  Actual Average Record
Temperature  
Mean Temperature 80 °F -  
Max Temperature 90 °F 83 °F 91 °F (2002)
Min Temperature 71 °F 69 °F 62 °F (2010)
Cooling Degree Days 16    
Growing Degree Days 30 (Base 50)    
Moisture  
Dew Point 69 °F    
Average Humidity 72    
Maximum Humidity 88    
Minimum Humidity 51    
Precipitation  
Precipitation 0.00 in - - ()
Sea Level Pressure  
Sea Level Pressure 29.96 in    
Wind  
Wind Speed 2 mph ()    
Max Wind Speed 12 mph    
Max Gust Speed -    
Visibility 7.3 miles    
Events      
Averages and records for this station are not official NWS values.
T = Trace of Precipitation, MM = Missing Value Source: Averaged Metar Reports

Daily Weather History Graph

Daily Weather History Graph

Search for Another Location

Airport:

Trip Planner

Search our weather history database for the weather conditions in past years. The results will help you decide how hot, cold, wet, or windy it might be!

Date:

Astronomy

Jul. 02, 2013 Rise Set
Actual Time 7:20 AM CDT 8:36 PM CDT
Civil Twilight 6:56 AM CDT 9:00 PM CDT
Nautical Twilight 6:27 AM CDT 9:29 PM CDT
Astronomical Twilight 5:57 AM CDT 9:59 PM CDT
Moon 3:02 AM CDT (7/2) 4:09 PM CDT (7/2)
Length of Visible Light 14h 04m
Length of Day
13h 16m
Waning Crescent, 26% of the Moon is Illuminated
Jul 2
Waning Crescent
Jul 8
New
Jul 15
First Quarter
Jul 22
Full
Jul 29
Last Quarter

Hourly Weather History & Observations

Time (CDT) Temp. Heat Index Dew Point Humidity Pressure Visibility Wind Dir Wind Speed Gust Speed Precip Events Conditions
12:40 AM 74 °F - 70 °F 83% 29.95 in 6 mi Calm Calm - -   Haze
3:47 AM 73 °F - 70 °F 88% 29.93 in 5 mi NW 2.2 mph - -   Haze
6:00 AM 69.8 °F - 64.4 °F 83% 30.00 in 8.0 mi Calm Calm - N/A   Overcast
6:40 AM 69.8 °F - 66.2 °F 88% 29.99 in 8.0 mi Calm Calm - N/A   Overcast
6:50 AM 73 °F - 70 °F 87% 29.91 in 5 mi NE 2.2 mph - -   Haze
7:56 AM 71.6 °F - 66.2 °F 83% 30.01 in 8.0 mi Calm Calm - N/A   Mostly Cloudy
9:40 AM 73.4 °F - 60.8 °F 65% 30.03 in 8.0 mi Calm Calm - N/A   Overcast
9:54 AM 78 °F - 72 °F 77% 29.96 in 6 mi SE 2.2 mph - -   Haze
10:40 AM 77.0 °F - 62.6 °F 61% 30.04 in 8.0 mi Calm Calm - N/A   Mostly Cloudy
11:40 AM 77.0 °F - 66.2 °F 69% 30.04 in 8.0 mi Calm Calm - N/A   Mostly Cloudy
12:40 PM 78.8 °F - 66.2 °F 65% 30.03 in 8.0 mi Calm Calm - N/A   Mostly Cloudy
12:53 PM 87 °F - 73 °F 54% 29.95 in 6 mi SE 4.5 mph - -   Haze
1:40 PM 80.6 °F 82.3 °F 64.4 °F 58% 30.02 in 8.0 mi Calm Calm - N/A   Mostly Cloudy
2:40 PM 84.2 °F 88.4 °F 69.8 °F 62% 29.99 in 8.0 mi Calm Calm - N/A   Mostly Cloudy
3:41 PM 82.4 °F 87.2 °F 71.6 °F 70% 29.96 in 8.0 mi SW 11.5 mph - N/A   Mostly Cloudy
3:49 PM 89 °F - 73 °F 51% 29.86 in 6 mi SW 4.5 mph - -   Haze
4:45 PM 82.4 °F 86.3 °F 69.8 °F 66% 29.93 in 8.0 mi WSW 9.2 mph - N/A   Mostly Cloudy
5:40 PM 80.6 °F 84.6 °F 71.6 °F 74% 29.92 in 8.0 mi WSW 11.5 mph - N/A   Mostly Cloudy
6:42 PM 77.0 °F - 69.8 °F 78% 29.93 in 8.0 mi WSW 11.5 mph - N/A   Mostly Cloudy
6:48 PM 85 °F - 71 °F 55% 29.84 in 6 mi SE 6.7 mph - -   Haze
8:11 PM 75.2 °F - 69.8 °F 83% 29.96 in 8.0 mi WSW 11.5 mph - N/A   Mostly Cloudy
8:50 PM 75.2 °F - 69.8 °F 83% 29.97 in 8.0 mi Calm Calm - N/A   Mostly Cloudy
9:40 PM 78 °F - 69 °F 68% 29.89 in 6 mi South 2.2 mph - -   Haze
9:40 PM 73.4 °F - 68.0 °F 83% 29.99 in 8.0 mi Calm Calm - N/A   Scattered Clouds